Location: *
(52.2090°N, 4.1550°W)
Time: 10:37:11
(UTC+00:00)

Cosmos 1805 Rocket - Pass Details

Date: 19 July 2019
Orbit: 606 x 630 km, 82.5° (Epoch: 21 August)

Event Time Altitude Azimuth Distance (km) Brightness Sun altitude
Exits shadow 22:26:15 12° 191° (S) 1,824 5.5 -12.7°
Maximum altitude 22:30:16 86° 282° (WNW) 622 3.5 -13.0°
Drops below altitude 10° 22:34:39 10° 10° (N) 1,977 7.0 -13.3°
Sets 22:36:52 0° 11° (N) 2,884 7.9 -13.4°
